Regional Weather Roundup
Issued by NWS Northern Indiana

Home | Current Version | Previous Version | Text Only | Print | Product List | Glossary Off
Versions: 1 2 3 4 5 6 7 8 9 10 11 12 13 14 15 16 17 18 19 20 21 22 23 24 25 26 27 28 29 30 31 32 33 34 35 36 37 38 39 40 41 42 43 44 45 46 47 48 49 50

000
ASUS43 KIWX 270210
RWRIWX

KIWX WEATHER ROUNDUP
NATIONAL WEATHER SERVICE NORTHERN INDIANA
1000 PM EDT SUN APR 26 2015

NOTE: "FAIR" INDICATES FEW OR NO CLOUDS BELOW 12,000 FEET WITH NO
SIGNIFICANT WEATHER AND/OR OBSTRUCTIONS TO VISIBILITY.

* THESE STATIONS ARE NOT UNDER NWS QUALITY CONTROL. THEY ALSO MAY NOT
  REPORT WEATHER SUCH AS PRECIPITATION OR FOG.

INZ001>027-270300-
NORTHERN INDIANA

CITY           SKY/WX    TMP DP  RH WIND       PRES   REMARKS
GARY*          PTCLDY    45  27  49 N7        30.02S
VALPARAISO     CLEAR     41  27  57 N7        29.99S
MICHIGAN CITY* CLEAR     37  27  65 N5        30.00R
LAPORTE*       CLEAR     44  29  55 N13       29.98S
KNOX*          CLEAR     37  16  41 N6        29.97S
SOUTH BEND     CLEAR     44  23  43 N10       29.97S
GOSHEN         CLOUDY    47  29  49 NW9       29.94R
MONTICELLO*    CLEAR     43  31  63 N8        29.97S
LOGANSPORT*    CLEAR     45  28  53 NW9       29.97R
ROCHESTER*     CLEAR     46  30  53 NW8       29.96R
WARSAW*        CLEAR     45  30  57 NW8       29.94S
ANGOLA*        CLOUDY    52  37  58 NW5       29.92R
FORT WAYNE     PTCLDY    49  32  52 NW5       29.93R
HUNTINGTON*    CLOUDY    49  32  52 NW9       29.93R
PERU/GRISSOM   CLEAR     46  32  58 NW8       29.95R
MARION*        CLOUDY    50  33  52 N8        29.94R

$$
INZ028>050-270300-
CENTRAL INDIANA

CITY           SKY/WX    TMP DP  RH WIND       PRES   REMARKS
LAFAYETTE      CLEAR     45  29  53 N12       29.98R
KOKOMO*        CLEAR     46  34  61 N9        29.95R
MUNCIE*        CLOUDY    50  38  63 NW6       29.92R
INDIANAPOLIS   PTCLDY    50  34  54 NW12      29.93R

$$
MIZ043>046-050>051-056>058-064>065-071>073-077>080-270300-
SOUTHWEST LOWER MICHIGAN

CITY           SKY/WX    TMP DP  RH WIND       PRES   REMARKS
BATTLE CREEK   CLOUDY    53  29  39 N10       29.92R
BENTON HARBOR  PTCLDY    41  30  65 VRB5      29.97S
COLDWATER*     CLOUDY    51  29  42 W8        29.92R
HILLSDALE*     CLOUDY    47  29  49 CALM      29.90R
HOLLAND        CLEAR     47  28  47 NW5       29.97R
GRAND RAPIDS   CLEAR     49  28  44 N10       29.95R
KALAMAZOO      PTCLDY    48  28  46 NW9       29.94R
STURGIS*       CLOUDY    48  28  46 CALM      29.92S
THREE RIVERS*  MOCLDY    47  28  47 NW8       29.94R

$$
OHZ001>008-015>018-024>025-270300-
NORTHWEST OHIO

CITY           SKY/WX    TMP DP  RH WIND       PRES   REMARKS
WAUSEON*       MOCLDY    48  28  46 CALM      29.90S
DEFIANCE       PTCLDY    51  31  46 CALM      29.91R
FINDLAY        CLOUDY    51  33  50 E6        29.90R
TOLEDO EXPRESS PTCLDY    47  31  53 E5        29.90R
TOLEDO METCALF CLEAR     47  33  58 E5        29.92R
LIMA           CLOUDY    49  35  58 E6        29.90R

$$
AND FOR LAKE MICHIGAN COASTAL AND OPEN LAKE BUOY OBSERVATIONS

STATION/POSITION TEMP    WIND        PRES    VSBY  WAVE
                 AIR SEA DIR/SP/G                  HT/PER
                 (F)     (DEG/KT/KT) (MB)    (MI)  (FT/S)
CALUMET HARBOR    43     330/  7/  9   N/A
MICHIGAN CITY     42     360/  7/  7   N/A
BURNS HARBOR      44      50/  9/ 11 1016.3S
SAINT JOSEPH      43     340/  8/ 12 1015.9R
MICHIGAN CITY     42 45   10/  6/ 10   N/A           3/ 5

$$
&&



USA.gov is the U.S. government's official web portal to all federal, state and local government web resources and services.